{"data":{"norad_id":55488,"epoch":"2026-05-25T01:12:12.520224Z","epoch_age_seconds":80768,"freshness":"FRESH","line1":"1 55488U 23015AR  26145.05014491  .00004777  00000+0  18308-3 0  9990","line2":"2 55488  43.0031 268.4804 0001285 301.7947  58.2780 15.27565442182273","mean_motion":15.27565442,"eccentricity":0.0001285,"inclination_deg":43.0031,"raan_deg":268.4804,"arg_perigee_deg":301.7947,"mean_anomaly_deg":58.278,"bstar":0.00018308,"rev_number":18227,"period_min":94.267647094363,"perigee_km":482.21102026012,"apogee_km":483.97435629001,"semimajor_km":6861.2296882751,"source":"CELESTRAK","updated_at":"2026-05-25T13:38:17.810456Z"}}